Back to catalog

STARLINK-35913

AliveCommunicationsVLEO
NORAD 67004·PAYLOAD·🇺🇸 United States

Launched Dec 10, 2025 from Vandenberg Space Force Base

Loading…

Next Passes (next 24 hours)

TLE

FreshSource: CelesTrak SupGP

Epoch: Sep 14, 2026, 21:39 UTC

1 67004C 25293B   26257.90256944 -.00041395  00000+0 -34697-2 0  2570
2 67004  70.0018 337.3832 0003581 270.9176 322.3510 14.98343616    15

Track STARLINK-35913 in real time with AllMySat

Download on the App Store